Regional Weather Roundup
Issued by NWS New Orleans/Baton Rouge, LA

Home | Current Version | Previous Version | Text Only | Print | Product List | Glossary On
Versions: 1 2 3 4 5 6 7 8 9 10 11 12 13 14 15 16 17 18 19 20 21 22 23 24 25 26 27 28 29 30 31 32 33 34 35 36 37 38 39 40 41 42 43 44 45 46 47 48 49 50
000
ASUS44 KLIX 271210
RWRLIX
NEW ORLEANS REGIONAL WEATHER ROUNDUP
NATIONAL WEATHER SERVICE NEW ORLEANS LA
600 AM CST FRI FEB 27 2015

NOTE: "FAIR" INDICATES FEW OR NO CLOUDS BELOW 12,000 FEET WITH NO
      SIGNIFICANT WEATHER AND/OR OBSTRUCTIONS TO VISIBILITY.
      SKY/WX - SKY CONDITION AND SIGNIFICANT WEATHER.
      TMP - AIR TEMPERATURE.     DP    - DEWPOINT TEMPERATURE.
      RH  - RELATIVE HUMIDITY.   PRES  - PRESSURE.
      HI  - HEAT INDEX.          WCI   - WIND CHILL INDEX.

*  THESE STATIONS ARE NOT NWS OR FAA STATIONS AND ARE NOT UNDER
   NWS QUALITY CONTROL.

LAZ038-040-048-061>063-065>067-069-271300-
SOUTHEAST LOUISIANA

CITY           SKY/WX    TMP DP  RH WIND       PRES   REMARKS
N.O. AUDUBON   NOT AVBL
N.O. INTL ARPT MOCLDY    37  30  75 NE14      30.36R WCI  28
6HR MIN TEMP:  37; 6HR MAX TEMP:  41;

N.O. LAKEFRONT PTCLDY    39  32  76 NE22      30.37R WCI  29
6HR MIN TEMP:  39; 6HR MAX TEMP:  43;

SLIDELL        CLEAR     32  29  88 N8        30.37R WCI  25
6HR MIN TEMP:  32; 6HR MAX TEMP:  37;

BATON ROUGE    CLOUDY    35  28  75 NE9       30.38R WCI  28
6HR MIN TEMP:  35; 6HR MAX TEMP:  37;

BOOTHVILLE     MOCLDY    43  36  76 NE14G25   30.33R
6HR MIN TEMP:  42; 6HR MAX TEMP:  48;

BELLE CHASSE   PTCLDY    36  29  75 NE10      30.36R WCI  28
6HR MIN TEMP:  35; 6HR MAX TEMP:  43;

BOGALUSA*        N/A     34  30  86 NE5       30.40R WCI  30
6HR MIN TEMP:  32; 6HR MAX TEMP:  37;

GALLIANO*      CLOUDY    39  33  78 MISG      30.35R
6HR MIN TEMP:  39; 6HR MAX TEMP:  46;

NEW ROADS*     CLOUDY    35  29  78 N8        30.38S WCI  28
6HR MIN TEMP:  35; 6HR MAX TEMP:  36;

GONZALES*      CLOUDY    35  32  89 MISG      30.38R
6HR MIN TEMP:  33; 6HR MAX TEMP:  37;

HAMMOND*       PTCLDY    32  28  86 CALM      30.40R
HOUMA*         NOT AVBL
PORT FOURCHON* PTSUNNY   39  36  87 NE23G31   30.36R WCI  29

$$

MSZ070-080>082-271300-
SOUTHERN MISSISSIPPI

CITY           SKY/WX    TMP DP  RH WIND       PRES   REMARKS
MCCOMB         CLOUDY    34  27  75 N8        30.39R WCI  27
6HR MIN TEMP:  34; 6HR MAX TEMP:  35;

GULFPORT       CLEAR     32  28  85 NE8       30.35R WCI  25
6HR MIN TEMP:  32; 6HR MAX TEMP:  39;

BILOXI         CLEAR     33  30  90 NE10      30.35R WCI  25
6HR MIN TEMP:  33; 6HR MAX TEMP:  40;

PASCAGOULA     CLEAR     32  29  88 N14       30.36R WCI  22
6HR MIN TEMP:  32; 6HR MAX TEMP:  40;


$$

COASTAL OBSERVATIONS
LAKE AND NEARSHORE STATIONS

STATION/POSITION TIME  TEMP    WIND        PRES    WAVE
                       AIR SEA DIR/SP/G            HT/PER
                 (UTC) (F)     (DEG/KT/KT) (MB)    (FT/S)
PASCAGOULA       1200   34      10/ 12/ 15 1027.3
WAVELAND YACHT   1200   34 45   20/ 13/ 16 1027.6
GRAND ISLE       1200   39 51   60/ 18/ 22 1026.7
SOUTHWEST PASS   1200           30/ 22/ 27   N/A
NEW CANAL        1200   38      40/ 18/ 22 1028.3
SHELL BEACH      1200   39 48   30/ 22/ 25 1027.7

OFFSHORE STATIONS

STATION/POSITION TIME  TEMP    WIND        PRES    WAVE
                       AIR SEA DIR/SP/G            HT/PER
                 (UTC) (F)     (DEG/KT/KT) (MB)    (FT/S)
64 S DAUPHIN ISL 1130   46 64   30/ 21/ 29 1025.7    7/ 6

$$




USA.gov is the U.S. government's official web portal to all federal, state and local government web resources and services.